• Join FlightAware (Why Join?)
  • Login
  • US Flag 
01:53PM EDT


 

Airport Tracker/Info


-or-


 

Live Flight TrackerFlight Track Log ✈ SKW6306 ✈ 18-Jun-2013 ✈ KDEN - CYXE

Flight Track Log - Related Links

Times and Time Zones

All times are in EDT time to prevent confusion due to time zone crossing. See the SKW6306 flight status page for this flight to view local times or setup timezone preferences in your user account.

Time Position Orientation Groundspeed Altitude Reporting Facility
EDT Latitude Longitude Course Direction KTS MPH feet Rate Location/Type
02:05PM 39.8833 -104.5667 346° North 192 221 7,200  Level Denver TRACON
02:06PM 39.9000 -104.4833 75° East 248 285 8,500 1,380 Climbing Denver TRACON
02:07PM 39.9500 -104.4000 52° Northeast 299 344 10,000 1,740 Climbing Denver TRACON
02:08PM 40.2980 -104.8111 347° North  Level FlightAware Approximate
02:08PM 40.0333 -104.4000 360° North 307 353 12,000  Level Denver TRACON
02:09PM 40.4101 -104.8478 346° North  Level FlightAware Approximate
02:10PM 40.5221 -104.8849 348° North  Level FlightAware Approximate
02:10PM 40.1319 -104.4361 344° North 309 356 14,200  Level Denver Center
02:11PM 40.6350 -104.9172 346° North  Level FlightAware Approximate
02:11PM 40.2167 -104.5061 328° Northwest 333 383 15,500  Level Denver Center
02:12PM 40.3019 -104.5697 330° Northwest 352 405 17,100 1,440 Climbing Denver Center
02:14PM 40.4717 -104.6706 336° Northwest 355 409 19,800 1,260 Climbing Salt Lake Center
02:15PM 40.5608 -104.7214 337° Northwest 359 413 20,900 1,080 Climbing Salt Lake Center
02:16PM 40.6681 -104.7828 337° Northwest 367 422 22,100 1,200 Climbing Salt Lake Center
02:17PM 40.7606 -104.8389 335° Northwest 375 432 23,400 1,260 Climbing Salt Lake Center
02:18PM 40.8703 -104.8956 339° North 379 436 24,800 960 Climbing Salt Lake Center
02:19PM 40.9642 -104.9408 340° North 378 435 25,500 540 Climbing Salt Lake Center
02:20PM 41.0714 -104.9914 340° North 379 436 26,000 240 Climbing Salt Lake Center
02:21PM 41.1708 -105.0400 340° North 392 451 26,000  Level Salt Lake Center
02:22PM 41.2947 -105.0525 356° North 412 474 26,000  Level Salt Lake Center
02:23PM 41.4019 -105.0400 North 407 468 26,000 240 Level Salt Lake Center
02:24PM 41.5342 -105.0336 North 406 467 26,500 660 Climbing Salt Lake Center
02:25PM 41.6406 -105.0275 North 403 464 27,400 720 Climbing Salt Lake Center
02:26PM 41.7475 -105.0153 North 402 463 28,100 600 Climbing Salt Lake Center
02:27PM 41.8728 -105.0042 North 403 464 28,700 480 Climbing Salt Lake Center
02:28PM 41.9811 -105.0039 360° North 405 466 29,200 480 Climbing Salt Lake Center
02:29PM 42.1097 -105.0083 359° North 409 471 29,800 360 Climbing Salt Lake Center
02:30PM 42.2206 -105.0092 360° North 414 476 30,000 60 Climbing Salt Lake Center
02:31PM 42.3544 -105.0250 355° North 425 489 30,000  Level Salt Lake Center
02:32PM 42.4708 -105.0381 355° North 432 497 30,000  Level Salt Lake Center
02:33PM 42.6061 -105.0544 355° North 433 498 30,000  Level Salt Lake Center
02:34PM 42.7200 -105.0822 350° North 431 496 30,000  Level Salt Lake Center
02:35PM 42.8331 -105.1103 350° North 427 491 30,000  Level Salt Lake Center
02:36PM 42.9617 -105.1433 349° North 424 488 30,000  Level Salt Lake Center
02:37PM 42.9989 -105.1514 351° North 426 490 30,000  Level Denver Center
02:38PM 43.1489 -105.1906 349° North 428 493 30,000  Level Denver Center
02:39PM 43.2428 -105.2142 350° North 428 493 30,000  Level Denver Center
02:40PM 43.3942 -105.2536 349° North 431 496 30,000  Level Denver Center
02:41PM 43.5069 -105.2831 349° North 431 496 30,000  Level Denver Center
02:42PM 43.6403 -105.3181 349° North 434 499 30,000  Level Denver Center
02:43PM 43.7361 -105.3439 349° North 436 502 30,000  Level Denver Center
02:44PM 43.8678 -105.3772 350° North 433 498 30,000  Level Denver Center
02:45PM 44.0022 -105.4147 349° North 438 504 30,000  Level Denver Center
02:46PM 44.1150 -105.4450 349° North 435 501 30,000 60 Level Denver Center
02:47PM 44.2483 -105.4814 349° North 435 501 30,200 540 Climbing Denver Center
02:48PM 44.3611 -105.5097 350° North 432 497 31,200 840 Climbing Denver Center
02:49PM 44.4875 -105.5444 349° North 423 487 32,000 360 Climbing Denver Center
02:50PM 44.5967 -105.5736 349° North 418 481 32,000  Level Denver Center
02:51PM 44.7278 -105.6064 350° North 424 488 32,000  Level Denver Center
02:52PM 44.8417 -105.6383 349° North 431 496 32,000  Level Denver Center
02:53PM 44.9539 -105.6733 348° North 432 497 32,000  Level Denver Center
02:54PM 45.0861 -105.7103 349° North 433 498 32,000  Level Denver Center
02:55PM 45.1989 -105.7439 348° North 433 498 32,000  Level Denver Center
02:57PM 45.3322 -105.7806 349° North 435 501 32,000  Level Denver Center
02:58PM 45.4467 -105.8097 350° North 436 502 32,000  Level Denver Center
02:59PM 45.5814 -105.8461 349° North 439 505 32,000  Level Denver Center
02:59PM 45.6289 -105.8592 349° North 439 505 32,000  Level Salt Lake Center
03:00PM 45.7500 -105.8933 349° North 441 507 32,000  Level Salt Lake Center
03:01PM 45.8681 -105.9236 350° North 439 505 32,000  Level Salt Lake Center
03:02PM 46.0111 -105.9633 349° North 436 502 32,000  Level Salt Lake Center
03:03PM 46.1311 -105.9997 348° North 436 502 32,000  Level Salt Lake Center
03:04PM 46.2511 -106.0342 349° North 438 504 32,000  Level Salt Lake Center
03:05PM 46.3717 -106.0678 349° North 439 505 32,000  Level Salt Lake Center
03:06PM 46.4911 -106.1031 349° North 439 505 32,000  Level Salt Lake Center
03:07PM 46.6117 -106.1397 348° North 440 506 32,000  Level Salt Lake Center
03:08PM 46.7333 -106.1756 349° North 442 509 32,000  Level Salt Lake Center
03:09PM 46.8772 -106.2181 349° North 442 509 32,000  Level Salt Lake Center
03:10PM 46.9986 -106.2547 348° North 443 510 32,000  Level Salt Lake Center
03:11PM 47.1192 -106.2903 349° North 442 509 32,000  Level Salt Lake Center
03:12PM 47.2378 -106.3261 348° North 441 507 32,000  Level Salt Lake Center
03:14PM 47.3583 -106.3625 348° North 440 506 32,000  Level Salt Lake Center
03:15PM 47.4778 -106.3983 349° North 439 505 32,000  Level Salt Lake Center
03:16PM 47.5961 -106.4353 348° North 437 503 32,000  Level Salt Lake Center
03:17PM 47.7364 -106.4781 348° North 433 498 32,000  Level Salt Lake Center
03:18PM 47.8544 -106.5125 349° North 432 497 32,000  Level Salt Lake Center
03:19PM 47.9717 -106.5500 348° North 432 497 32,000  Level Salt Lake Center
03:20PM 48.0892 -106.5858 348° North 431 496 32,000  Level Salt Lake Center
03:21PM 48.2069 -106.6231 348° North 431 496 32,000  Level Salt Lake Center
03:22PM 48.3225 -106.6767 343° North 434 499 32,000  Level Salt Lake Center
03:23PM 48.4583 -106.7436 342° North 432 497 32,000  Level Salt Lake Center
03:24PM 48.5686 -106.8000 341° North 425 489 32,000  Level Salt Lake Center
03:25PM 48.6811 -106.8556 342° North 425 489 32,000  Level Salt Lake Center
03:26PM 48.7942 -106.9119 342° North 426 490 32,000  Level Salt Lake Center
03:27PM 48.9000 -107.0000 331° Northwest 420 483 32,000  Level Winnipeg Center
03:28PM 49.0167 -107.0500 344° North 420 483 32,000  Level Winnipeg Center
03:29PM 49.1167 -107.1000 342° North 430 495 32,000  Level Winnipeg Center
03:30PM 49.2333 -107.1833 335° Northwest 430 495 32,000  Level Winnipeg Center
03:31PM 49.3500 -107.2333 344° North 420 483 32,000  Level Winnipeg Center
03:32PM 49.4667 -107.2500 355° North 430 495 32,000  Level Winnipeg Center
03:33PM 49.5833 -107.2500 360° North 430 495 32,000  Level Winnipeg Center
03:34PM 49.7000 -107.2833 350° North 430 495 32,000  Level Winnipeg Center
03:35PM 49.8167 -107.2833 360° North 430 495 32,000  Level Winnipeg Center
03:36PM 49.9333 -107.3000 355° North 430 495 32,000  Level Winnipeg Center
03:37PM 50.0667 -107.3167 355° North 430 495 32,000  Level Winnipeg Center
03:38PM 50.1833 -107.3167 360° North 430 495 32,000  Level Winnipeg Center
03:39PM 50.3000 -107.3333 355° North 430 495 32,000  Level Winnipeg Center
03:40PM 50.4167 -107.3333 360° North 430 495 32,000  Level Winnipeg Center
03:41PM 50.5333 -107.3667 350° North 430 495 32,000  Level Winnipeg Center
03:42PM 50.6500 -107.3667 360° North 430 495 32,000  Level Winnipeg Center
03:43PM 50.7667 -107.3833 355° North 430 495 32,000  Level Winnipeg Center
03:44PM 50.8833 -107.3833 360° North 430 495 32,000  Level Winnipeg Center
03:45PM 51.0167 -107.4167 351° North 430 495 32,000 -120 Level Winnipeg Center
03:46PM 51.1333 -107.4167 360° North 430 495 31,800 -1,380 Descending Winnipeg Center
03:47PM 51.2500 -107.4500 350° North 440 506 29,300 -2,700 Descending Winnipeg Center
03:48PM 51.3667 -107.4500 360° North 430 495 26,400 -2,760 Descending Winnipeg Center
03:49PM 51.4833 -107.4667 355° North 420 483 23,800 -2,700 Descending Winnipeg Center
03:50PM 51.6000 -107.4667 360° North 420 483 21,000 -2,340 Descending Winnipeg Center
03:51PM 51.7167 -107.5000 350° North 400 460 19,200 -1,620 Descending Winnipeg Center
03:52PM 51.8167 -107.5000 360° North 350 403 17,800 -1,620 Descending Winnipeg Center
03:53PM 51.9000 -107.4667 14° North 330 380 16,000 -2,460 Descending Winnipeg Center
03:54PM 51.9667 -107.3667 43° Northeast 330 380 12,900 -3,000 Descending Winnipeg Center
03:55PM 52.0167 -107.2667 51° Northeast 310 357 10,000 -2,760 Descending Winnipeg Center
03:56PM 52.0667 -107.1667 51° Northeast 290 334 7,400 -2,340 Descending Winnipeg Center
03:57PM 52.1167 -107.0833 46° Northeast 280 322 5,400 -1,560 Descending Winnipeg Center
03:58PM 52.1833 -106.9833 43° Northeast 270 311 4,300 -1,140 Descending Winnipeg Center